EW6005 Weather Reports


Display with metric or nautical units.
time (UTC)temp
F
wind
direction
speed
MPH
gust
MPH
rain 1hr
in
rain 24hr
in
rain mn
in
humidity
%
barometer
mb
20211208220142 65 360 0.0 0.0 0.00 0.00 0.00 88 1016.1
20211208214741 65 360 0.0 0.0 0.00 0.00 0.00 88 1015.9
20211208213125 65 360 0.0 2.0 0.00 0.00 0.00 88 1016.2
20211208211615 66 360 0.0 0.0 0.00 0.00 0.00 88 1016.2
20211208210141 66 360 0.0 1.0 0.00 0.00 0.00 87 1016.3
20211208204725 66 360 0.0 2.0 0.00 0.00 0.00 87 1016.4
20211208203343 67 360 0.0 2.0 0.00 0.00 0.00 86 1016.3
20211208201613 67 360 0.0 0.0 0.00 0.00 0.00 86 1016.3
20211208200115 67 360 0.0 0.0 0.00 0.00 0.00 87 1016.4
20211208194601 67 360 0.0 0.0 0.00 0.00 0.00 87 1016.5
20211208193057 66 360 0.0 0.0 0.00 0.00 0.00 88 1016.9
20211208191618 66 360 0.0 0.0 0.00 0.00 0.00 88 1017.3
20211208190057 66 360 0.0 0.0 0.00 0.00 0.00 89 1017.5
20211208184557 66 360 0.0 0.0 0.00 0.00 0.00 89 1017.6
20211208183056 66 360 0.0 0.0 0.00 0.00 0.00 89 1017.8
20211208181650 66 360 0.0 0.0 0.00 0.00 0.00 89 1018.0
20211208180037 66 360 0.0 0.0 0.00 0.00 0.00 90 1018.2
20211208174531 65 360 0.0 0.0 0.00 0.00 0.00 90 1018.5
20211208173104 65 9 0.0 0.0 0.00 0.00 0.00 90 1018.6
20211208171619 65 9 0.0 0.0 0.00 0.00 0.00 90 1018.8
20211208170045 65 9 0.0 0.0 0.00 0.00 0.00 91 1019.0
20211208164638 64 24 0.0 0.0 0.00 0.00 0.00 91 1019.2
20211208163059 64 360 0.0 0.0 0.00 0.00 0.00 91 1019.2
20211208161548 64 360 0.0 3.0 0.00 0.00 0.00 91 1019.2
20211208160049 63 360 0.0 0.0 0.00 0.00 0.00 92 1019.2
20211208154602 63 360 0.0 0.0 0.00 0.00 0.00 92 1019.2
20211208153053 62 360 0.0 0.0 0.00 0.00 0.00 91 1019.1
20211208151535 61 360 0.0 0.0 0.00 0.00 0.00 91 1019.0
20211208150039 61 360 0.0 0.0 0.00 0.00 0.00 91 1018.7
20211208144520 60 360 0.0 0.0 0.00 0.00 0.00 91 1018.8
20211208143014 60 360 0.0 0.0 0.00 0.00 0.00 91 1018.8
20211208141540 60 360 0.0 0.0 0.00 0.00 0.00 91 1018.7
20211208140007 60 360 0.0 0.0 0.00 0.00 0.00 91 1018.6
20211208134527 60 360 0.0 1.0 0.00 0.00 0.00 91 1018.5
20211208133005 60 360 0.0 0.0 0.00 0.00 0.00 91 1018.3
20211208131727 60 360 0.0 0.0 0.00 0.00 0.00 91 1018.1
20211208130139 60 360 0.0 0.0 0.00 0.00 0.00 91 1017.9
20211208124636 60 360 0.0 0.0 0.00 0.00 0.00 91 1017.5
20211208123130 60 360 0.0 0.0 0.00 0.00 0.00 90 1017.2
20211208121701 60 360 0.0 0.0 0.00 0.00 0.00 91 1017.1
20211208120144 60 360 0.0 0.0 0.00 0.00 0.00 90 1017.0
20211208114712 60 360 0.0 0.0 0.00 0.00 0.00 90 1017.0
20211208113135 60 360 0.0 0.0 0.00 0.00 0.00 91 1016.8
20211208111630 60 360 0.0 0.0 0.00 0.00 0.00 90 1016.5
20211208110105 60 360 0.0 0.0 0.00 0.00 0.00 90 1016.3
20211208104640 60 360 0.0 0.0 0.00 0.00 0.00 90 1016.3
20211208103146 60 360 0.0 0.0 0.00 0.00 0.00 90 1016.4
20211208101558 60 360 0.0 0.0 0.00 0.00 0.00 90 1016.3
20211208100134 60 360 0.0 0.0 0.00 0.00 0.00 89 1015.9
20211208094628 60 360 0.0 0.0 0.00 0.00 0.00 90 1016.1
20211208093100 60 360 0.0 0.0 0.00 0.00 0.00 89 1016.1
20211208091617 60 360 0.0 0.0 0.00 0.00 0.00 89 1016.4
20211208090111 60 360 0.0 0.0 0.00 0.00 0.00 89 1016.5
20211208084541 60 360 0.0 0.0 0.00 0.00 0.00 89 1016.5
20211208083045 60 360 0.0 0.0 0.00 0.00 0.00 89 1016.6
20211208081601 60 360 0.0 0.0 0.00 0.00 0.00 89 1016.7
20211208080058 60 360 0.0 0.0 0.00 0.00 0.00 89 1016.7
20211208074619 60 360 0.0 0.0 0.00 0.00 0.00 89 1016.7
20211208073150 60 360 0.0 0.0 0.00 0.00 0.00 89 1016.6
20211208071550 60 360 0.0 0.0 0.00 0.00 0.00 88 1016.5
20211208070107 60 360 0.0 0.0 0.00 0.00 0.00 88 1016.4
20211208064542 60 360 0.0 0.0 0.00 0.00 0.00 87 1016.1
20211208063037 61 360 0.0 0.0 0.00 0.00 0.00 87 1016.2
20211208061541 61 360 0.0 0.0 0.00 0.00 0.00 86 1016.3
20211208060140 61 360 0.0 0.0 0.00 0.00 0.00 86 1016.3
20211208054529 61 360 0.0 0.0 0.00 0.00 0.00 86 1016.5
20211208053029 61 360 0.0 0.0 0.00 0.00 0.00 86 1016.7
20211208051551 61 360 0.0 0.0 0.00 0.00 0.00 86 1016.8
20211208050058 61 360 0.0 0.0 0.00 0.00 0.00 86 1017.0
20211208044548 61 360 0.0 0.0 0.00 0.00 0.00 86 1017.0
20211208043049 61 360 0.0 0.0 0.00 0.00 0.00 86 1017.0
20211208041536 61 360 0.0 0.0 0.00 0.00 0.00 85 1017.1
20211208040050 61 360 0.0 0.0 0.00 0.00 0.00 85 1016.9
20211208034551 61 360 0.0 0.0 0.00 0.00 0.00 85 1017.0
20211208033035 61 360 0.0 0.0 0.00 0.00 0.00 85 1016.9
20211208031600 61 360 0.0 0.0 0.00 0.00 0.00 84 1016.8
20211208030023 61 360 0.0 0.0 0.00 0.00 0.00 84 1016.5
20211208024522 61 360 0.0 0.0 0.00 0.00 0.00 83 1016.4
20211208023024 61 360 0.0 0.0 0.00 0.00 0.00 84 1016.5
20211208021551 61 360 0.0 0.0 0.00 0.00 0.00 83 1016.4
20211208020140 62 360 0.0 0.0 0.00 0.00 0.00 83 1016.4
20211208014628 62 360 0.0 0.0 0.00 0.00 0.00 83 1016.2
20211208013031 62 360 0.0 0.0 0.00 0.00 0.00 82 1016.1
20211208011519 62 360 0.0 0.0 0.00 0.00 0.00 82 1016.0
20211208010018 62 360 0.0 0.0 0.00 0.00 0.00 82 1016.0
20211208004517 62 360 0.0 0.0 0.00 0.00 0.00 82 1015.5
20211208003019 63 360 0.0 0.0 0.00 0.00 0.00 82 1015.4
20211208001517 63 57 0.0 0.0 0.00 0.00 0.00 82 1015.1
20211208000024 63 360 0.0 0.0 0.00 0.00 0.00 81 1014.8
20211207234541 63 360 0.0 0.0 0.00 0.00 0.00 80 1014.9
20211207233018 64 360 0.0 0.0 0.00 0.00 0.00 80 1014.8
20211207231519 64 360 0.0 0.0 0.00 0.00 0.00 80 1014.9
20211207230047 64 360 0.0 0.0 0.00 0.00 0.00 79 1014.9
20211207224517 65 360 0.0 0.0 0.00 0.00 0.00 79 1014.8
20211207223019 65 360 0.0 0.0 0.00 0.00 0.00 78 1014.9
20211207221534 66 360 0.0 0.0 0.00 0.00 0.00 77 1015.1